Location: Kalispell
(48.1967°N, 114.3128°W)
Time: 20:02:32
(UTC-06:00)

Amateur Radio Satellites - All Passes

Search period start: 27 June 2017 19:32
Search period end: 28 June 2017 19:32
Location: Kalispell, 48.1967°N, 114.3128°W

Satellite Date Start Highest point End Downlink Frequencies (MHz)
Time Altitude Azimuth
XW-2D 27 Jun 19:33:45 19:37:09 30° 264° (W) 19:40:34 145.860 - 145.880
CUBESAT XI-V 27 Jun 19:36:06 19:39:39 22° 298° (WNW) 19:43:11 437.345
SO-50 27 Jun 19:39:55 19:40:09 10° 5° (N) 19:40:24 436.795
XW-2B 27 Jun 19:43:05 19:46:17 25° 266° (W) 19:49:31 145.730 - 145.750
LilacSat-2 27 Jun 19:45:28 19:48:33 23° 266° (W) 19:51:39 437.200
CUTE 1.7 + AOD 2 27 Jun 19:49:59 19:54:11 64° 74° (ENE) 19:58:24 437.475
XW-2C 27 Jun 19:59:28 20:02:03 17° 269° (W) 20:04:39 145.795 - 145.815
KKS-1 27 Jun 20:05:07 20:08:08 18° 300° (WNW) 20:11:08 437.445
RS-15 27 Jun 20:06:26 20:15:30 26° 99° (E) 20:24:38 29.354- 29.394
KAITUO 1B 27 Jun 20:07:28 20:10:03 17° 268° (W) 20:12:37 145.475/437.950
AO-73 27 Jun 20:08:52 20:12:15 21° 62° (ENE) 20:15:38 145.935
AO-85 27 Jun 20:08:53 20:10:52 13° 112° (ESE) 20:12:50 145.980
AAUSAT CUBESAT 2 27 Jun 20:11:56 20:15:40 34° 69° (ENE) 20:19:24 437.432
BEESAT 3 27 Jun 20:20:00 20:20:15 10° 108° (ESE) 20:20:30 437.485
CUBEBUG 2 27 Jun 20:26:08 20:30:46 80° 76° (ENE) 20:35:33 437.445
STARS 27 Jun 20:27:34 20:30:59 22° 298° (WNW) 20:34:22 437.465
PCSat 27 Jun 20:30:40 20:35:50 41° 46° (NE) 20:40:55 145.827
Oscar 11 27 Jun 20:32:49 20:36:22 25° 65° (ENE) 20:39:57 .
ZACube-1 27 Jun 20:44:12 20:48:33 45° 70° (ENE) 20:52:57 437.345
XW-2A 27 Jun 20:49:33 20:52:42 32° 263° (W) 20:55:52 145.665 - 145.685
UWE-3 27 Jun 20:54:37 20:59:14 87° 250° (WSW) 21:03:59 435.000/436.395/437.385
SEEDS 27 Jun 21:03:54 21:07:44 34° 264° (W) 21:11:34 437.485
O/OREOS (USA 219) 27 Jun 21:03:56 21:06:12 14° 99° (E) 21:08:28 437.305
STRAND 1 27 Jun 21:08:18 21:13:28 69° 103° (ESE) 21:18:36 437.568
DELFI C3 27 Jun 21:16:52 21:19:38 19° 63° (ENE) 21:22:25 145.870
NO-84 27 Jun 21:17:00 21:19:21 15° 126° (SE) 21:21:47 435.350 FM
SO-50 27 Jun 21:19:06 21:22:25 19° 29° (NNE) 21:25:42 436.795
HO-68 27 Jun 21:19:13 21:25:24 30° 267° (W) 21:31:37 435.675
BEESAT 2 27 Jun 21:22:09 21:24:43 17° 112° (ESE) 21:27:18 435.950
CUTE 1.7 + AOD 2 27 Jun 21:28:07 21:30:27 14° 271° (W) 21:32:47 437.475
EO-88 27 Jun 21:38:15 21:40:59 20° 65° (ENE) 21:43:44 145.990 - 145.960
YUBILEINY 27 Jun 21:42:20 21:49:49 33° 82° (E) 21:57:19 435.215
AO-73 27 Jun 21:43:39 21:48:07 54° 260° (W) 21:52:38 145.935
AO-85 27 Jun 21:46:44 21:50:44 73° 310° (NW) 21:54:40 145.980
AAUSAT CUBESAT 2 27 Jun 21:47:48 21:51:12 24° 266° (W) 21:54:36 437.432
BEESAT 3 27 Jun 21:53:07 21:57:06 83° 127° (SE) 22:01:10 437.485
CUBEBUG 2 27 Jun 22:05:37 22:08:00 14° 274° (W) 22:10:24 437.445
Oscar 11 27 Jun 22:08:18 22:12:21 38° 263° (W) 22:16:25 .
RS-15 27 Jun 22:13:55 22:26:07 81° 124° (ESE) 22:38:32 29.354- 29.394
PCSat 27 Jun 22:14:11 22:19:15 41° 246° (WSW) 22:24:16 145.827
ZACube-1 27 Jun 22:21:23 22:25:01 23° 268° (W) 22:28:41 437.345
UWE-3 27 Jun 22:34:55 22:36:24 11° 275° (W) 22:37:55 435.000/436.395/437.385
O/OREOS (USA 219) 27 Jun 22:40:27 22:44:59 76° 297° (WNW) 22:49:32 437.305
TIGRISAT 27 Jun 22:41:58 22:45:14 19° 90° (E) 22:48:26 435.000
STRAND 1 27 Jun 22:48:26 22:52:09 20° 302° (WNW) 22:55:50 437.568
M-CUBED/EXP-1 PRIME 27 Jun 22:49:17 22:52:18 22° 101° (E) 22:55:29 437.505
DELFI C3 27 Jun 22:50:23 22:54:07 43° 261° (W) 22:57:54 145.870
NO-84 27 Jun 22:52:19 22:56:17 80° 147° (SSE) 23:00:33 435.350 FM
FO-29 27 Jun 22:53:45 23:01:16 47° 96° (E) 23:08:41 435.910
BEESAT 2 27 Jun 22:58:03 23:02:01 63° 311° (NW) 23:06:04 435.950
SO-50 27 Jun 22:59:01 23:03:34 80° 51° (NE) 23:08:07 436.795
EO-88 27 Jun 23:11:04 23:14:28 35° 263° (W) 23:17:53 145.990 - 145.960
ESTCUBE 1 27 Jun 23:15:03 23:18:50 27° 65° (ENE) 23:22:38 437.505/2401.250
PRISM 27 Jun 23:22:26 23:26:23 43° 99° (E) 23:30:19 437.425
UNISAT 6 27 Jun 23:24:01 23:28:34 49° 99° (E) 23:32:59 437.425
LO-87 27 Jun 23:24:52 23:28:18 45° 72° (ENE) 23:31:45 145.935 - 145.965
AO-85 27 Jun 23:29:26 23:31:48 15° 331° (NNW) 23:34:11 145.980
BEESAT 3 27 Jun 23:32:17 23:35:13 19° 327° (NNW) 23:38:09 437.485
YUBILEINY 27 Jun 23:37:16 23:46:01 66° 284° (WNW) 23:54:52 435.215
AIST 2D 28 Jun 00:11:30 00:14:02 18° 92° (E) 00:16:32 435.315
EO-79 28 Jun 00:16:56 00:18:38 12° 88° (E) 00:20:20 145.935-145.965
TIGRISAT 28 Jun 00:17:42 00:22:17 57° 289° (WNW) 00:26:45 435.000
O/OREOS (USA 219) 28 Jun 00:22:54 00:25:13 14° 318° (NW) 00:27:31 437.305
M-CUBED/EXP-1 PRIME 28 Jun 00:23:24 00:26:49 36° 296° (WNW) 00:30:28 437.505
50 SAT 28 Jun 00:24:51 00:26:30 13° 62° (ENE) 00:28:07 437.505
DUCHIFAT 1 28 Jun 00:27:31 00:29:24 13° 88° (E) 00:31:16 145.980
RS-15 28 Jun 00:28:08 00:39:55 47° 332° (NNW) 00:51:43 29.354- 29.394
NO-84 28 Jun 00:30:19 00:34:13 38° 347° (NNW) 00:38:18 435.350 FM
NANOSAT C BR1 28 Jun 00:36:43 00:39:37 18° 91° (E) 00:42:30 145.865
BEESAT 2 28 Jun 00:38:13 00:40:34 15° 332° (NNW) 00:42:58 435.950
FO-29 28 Jun 00:38:52 00:46:15 48° 296° (WNW) 00:53:38 435.910
SO-50 28 Jun 00:40:47 00:43:27 15° 249° (WSW) 00:46:07 436.795
VELOX 1 28 Jun 00:40:48 00:45:01 48° 70° (ENE) 00:49:16 145.980
SPROUT 28 Jun 00:41:27 00:45:36 52° 71° (ENE) 00:49:47 437.525
ESTCUBE 1 28 Jun 00:51:21 00:55:31 37° 263° (W) 00:59:42 437.505/2401.250
DX 1 28 Jun 00:52:28 00:55:57 24° 63° (ENE) 00:59:28 434.975-435.025
PRISM 28 Jun 00:58:18 01:01:24 21° 297° (WNW) 01:04:30 437.425
LO-87 28 Jun 00:59:58 01:01:59 14° 269° (W) 01:04:01 145.935 - 145.965
UNISAT 6 28 Jun 01:01:19 01:04:58 23° 298° (WNW) 01:08:32 437.425
UKube-1 28 Jun 01:04:10 01:07:31 22° 63° (ENE) 01:10:52 .
POLYITAN 1 28 Jun 01:16:10 01:20:20 47° 99° (E) 01:24:27 437.675
BUGSAT 1 28 Jun 01:25:59 01:28:43 16° 90° (E) 01:31:25 437.445
QB50P2 28 Jun 01:27:06 01:31:24 67° 102° (ESE) 01:35:38 145.880/145.840
YUBILEINY 28 Jun 01:39:27 01:44:54 17° 309° (NW) 01:50:24 435.215
AIST 2D 28 Jun 01:44:10 01:47:20 32° 290° (WNW) 01:50:29 435.315
EO-79 28 Jun 01:50:38 01:54:56 77° 286° (WNW) 01:59:12 145.935-145.965
50 SAT 28 Jun 01:55:37 01:58:54 49° 260° (W) 02:02:13 437.505
BEESAT 28 Jun 01:58:56 02:00:35 12° 53° (NE) 02:02:13 436.000
DUCHIFAT 1 28 Jun 02:01:19 02:05:35 73° 286° (WNW) 02:09:48 145.980
NO-84 28 Jun 02:08:38 02:12:34 34° 8° (N) 02:16:36 435.350 FM
Oscar 19 28 Jun 02:09:45 02:13:31 20° 91° (E) 02:17:15 437.125/150
NANOSAT C BR1 28 Jun 02:11:29 02:15:38 52° 289° (WNW) 02:19:46 145.865
VELOX 1 28 Jun 02:18:32 02:21:44 20° 268° (W) 02:24:58 145.980
SPROUT 28 Jun 02:18:53 02:21:49 18° 269° (W) 02:24:46 437.525
FO-29 28 Jun 02:25:57 02:29:31 14° 317° (NW) 02:33:06 435.910
DX 1 28 Jun 02:27:53 02:31:57 40° 262° (W) 02:36:03 434.975-435.025
UKube-1 28 Jun 02:39:11 02:43:17 44° 261° (W) 02:47:26 .
MOZHAYETS 4 28 Jun 02:41:02 02:43:57 17° 59° (ENE) 02:46:52
RS-15 28 Jun 02:45:02 02:56:12 36° 5° (N) 03:07:06 29.354- 29.394
POLYITAN 1 28 Jun 02:52:36 02:55:49 21° 298° (WNW) 02:59:00 437.675
AO-85 28 Jun 02:55:03 02:56:19 11° 22° (NNE) 02:57:35 145.980
BUGSAT 1 28 Jun 03:00:14 03:04:25 56° 288° (WNW) 03:08:33 437.445
QB50P2 28 Jun 03:04:06 03:06:42 16° 300° (WNW) 03:09:16 145.880/145.840
Gurwin Techsat 1B 28 Jun 03:24:30 03:29:46 57° 101° (E) 03:34:59 435.225
ITUPSAT 1 28 Jun 03:24:42 03:29:25 59° 71° (ENE) 03:34:11 437.325
EO-79 28 Jun 03:29:00 03:29:56 11° 304° (NW) 03:30:53 145.935-145.965
CUBESAT XI-V 28 Jun 03:31:17 03:32:36 11° 55° (NE) 03:33:53 437.345
BEESAT 28 Jun 03:32:44 03:37:29 71° 73° (ENE) 03:42:17 436.000
DUCHIFAT 1 28 Jun 03:40:12 03:40:27 10° 305° (NW) 03:40:41 145.980
NO-84 28 Jun 03:46:19 03:50:42 71° 29° (NNE) 03:55:03 435.350 FM
Oscar 19 28 Jun 03:48:12 03:53:15 61° 289° (WNW) 03:58:18 437.125/150
KKS-1 28 Jun 03:55:17 03:57:19 13° 56° (NE) 03:59:21 437.445
BEESAT 2 28 Jun 03:58:33 03:59:47 11° 21° (NNE) 04:01:01 435.950
AO-7 28 Jun 04:05:58 04:12:45 26° 92° (E) 04:19:29 .
MOZHAYETS 4 28 Jun 04:15:56 04:20:34 73° 258° (WSW) 04:25:13
BEESAT 3 28 Jun 04:29:30 04:32:54 25° 38° (NE) 04:36:16 437.485
ITAMSAT 1 28 Jun 04:31:55 04:36:37 33° 96° (E) 04:41:18 435.822/435.867
AO-85 28 Jun 04:33:57 04:37:46 39° 44° (NE) 04:41:46 145.980
RS-15 28 Jun 04:59:47 05:11:55 58° 37° (NE) 05:23:30 29.354- 29.394
ITUPSAT 1 28 Jun 05:04:12 05:07:38 19° 269° (W) 05:11:05 437.325
CUBESAT XI-V 28 Jun 05:04:31 05:09:09 72° 73° (ENE) 05:13:46 437.345
Gurwin Techsat 1B 28 Jun 05:05:05 05:09:22 25° 300° (WNW) 05:13:37 435.225
BEESAT 28 Jun 05:12:51 05:15:46 16° 271° (W) 05:18:43 436.000
NO-84 28 Jun 05:24:17 05:28:03 28° 227° (SW) 05:31:46 435.350 FM
KKS-1 28 Jun 05:28:45 05:33:11 89° 108° (ESE) 05:37:40 437.445
Oscar 19 28 Jun 05:30:10 05:31:34 11° 309° (NW) 05:32:58 437.125/150
BEESAT 2 28 Jun 05:34:53 05:38:42 36° 43° (NE) 05:42:27 435.950
STARS 28 Jun 05:50:17 05:54:38 67° 73° (ENE) 05:59:02 437.465
AO-7 28 Jun 05:57:58 06:06:23 80° 292° (WNW) 06:14:45 .
BEESAT 3 28 Jun 06:06:48 06:10:43 51° 238° (WSW) 06:14:34 437.485
ITAMSAT 1 28 Jun 06:11:17 06:16:09 40° 294° (WNW) 06:21:00 435.822/435.867
AO-85 28 Jun 06:14:29 06:18:03 29° 242° (WSW) 06:21:49 145.980
DOVE 4 28 Jun 06:16:23 06:20:09 21° 91° (E) 06:24:01 437.250
CUBESAT XI-V 28 Jun 06:44:29 06:47:02 15° 272° (W) 06:49:36 437.345
STRAND 1 28 Jun 06:50:11 06:54:08 23° 60° (ENE) 06:58:07 437.568
XW-2F 28 Jun 06:56:51 06:59:22 17° 91° (E) 07:01:52 145.980 - 146.000
XW-2D 28 Jun 07:02:40 07:05:36 21° 93° (E) 07:08:30 145.860 - 145.880
O/OREOS (USA 219) 28 Jun 07:07:43 07:12:06 49° 59° (ENE) 07:16:26 437.305
KKS-1 28 Jun 07:09:15 07:10:25 11° 273° (W) 07:11:35 437.445
XW-2B 28 Jun 07:11:35 07:14:45 25° 94° (E) 07:17:54 145.730 - 145.750
BEESAT 2 28 Jun 07:12:47 07:16:24 31° 242° (WSW) 07:19:59 435.950
RS-15 28 Jun 07:12:52 07:24:40 60° 244° (WSW) 07:35:52 29.354- 29.394
LilacSat-2 28 Jun 07:14:20 07:17:42 29° 96° (E) 07:21:00 437.200
XW-2C 28 Jun 07:26:58 07:30:31 38° 98° (E) 07:34:01 145.795 - 145.815
STARS 28 Jun 07:28:59 07:31:26 15° 271° (W) 07:33:55 437.465
KAITUO 1B 28 Jun 07:33:41 07:37:06 34° 97° (E) 07:40:30 145.475/437.950
CUTE-I 28 Jun 07:35:37 07:40:44 42° 98° (E) 07:45:48 437.470
YUBILEINY 28 Jun 07:46:58 07:53:17 21° 54° (NE) 07:59:32 435.215
AO-7 28 Jun 07:51:43 07:58:01 25° 315° (NW) 08:04:19 .
DOVE 4 28 Jun 07:53:18 07:58:07 58° 288° (WNW) 08:03:11 437.250
Tancredo 1 28 Jun 07:57:32 07:59:50 20° 141° (SE) 08:02:11 437.200
NUDT-PHONESAT 28 Jun 08:04:51 08:08:34 81° 102° (ESE) 08:12:14 437.300
XW-2A 28 Jun 08:09:09 08:10:22 12° 89° (E) 08:11:35 145.665 - 145.685
CUBEBUG 2 28 Jun 08:14:51 08:17:25 14° 87° (E) 08:19:55 437.445
STRAND 1 28 Jun 08:27:51 08:32:55 60° 259° (WSW) 08:38:03 437.568
XW-2F 28 Jun 08:30:09 08:33:43 41° 289° (WNW) 08:37:14 145.980 - 146.000
XW-2D 28 Jun 08:36:27 08:39:53 33° 291° (WNW) 08:43:15 145.860 - 145.880
HO-68 28 Jun 08:41:23 08:48:17 47° 99° (E) 08:55:07 435.675
UWE-3 28 Jun 08:41:55 08:44:43 16° 88° (E) 08:47:27 435.000/436.395/437.385
SEEDS 28 Jun 08:43:42 08:47:22 29° 95° (E) 08:51:01 437.485
XW-2B 28 Jun 08:45:40 08:48:56 28° 292° (WNW) 08:52:09 145.730 - 145.750
O/OREOS (USA 219) 28 Jun 08:47:50 08:51:09 21° 258° (WSW) 08:54:28 437.305
LilacSat-2 28 Jun 08:48:45 08:51:54 25° 293° (WNW) 08:55:00 437.200
ISS 28 Jun 08:52:13 08:55:11 32° 145° (SE) 08:58:10 437.550
UNISAT 6 28 Jun 08:53:43 08:54:31 10° 53° (NE) 08:55:19 437.425
XW-2C 28 Jun 09:01:43 09:04:29 20° 296° (WNW) 09:07:14 145.795 - 145.815
CUTE 1.7 + AOD 2 28 Jun 09:06:46 09:10:59 78° 101° (E) 09:15:11 437.475
KAITUO 1B 28 Jun 09:08:07 09:10:55 20° 295° (WNW) 09:13:42 145.475/437.950
FO-29 28 Jun 09:10:18 09:15:48 30° 57° (ENE) 09:21:52 435.910
CUTE-I 28 Jun 09:15:54 09:20:39 33° 297° (WNW) 09:25:24 437.470
AAUSAT CUBESAT 2 28 Jun 09:25:15 09:29:08 38° 98° (E) 09:32:58 437.432
AO-73 28 Jun 09:28:30 09:32:03 23° 92° (E) 09:35:30 145.935
RS-15 28 Jun 09:28:47 09:34:10 14° 268° (W) 09:39:29 29.354- 29.394
Tancredo 1 28 Jun 09:32:06 09:35:08 80° 341° (NNW) 09:38:11 437.200
M-CUBED/EXP-1 PRIME 28 Jun 09:38:44 09:41:52 46° 66° (ENE) 09:45:02 437.505
XW-2A 28 Jun 09:40:07 09:43:27 51° 287° (WNW) 09:46:44 145.665 - 145.685
NUDT-PHONESAT 28 Jun 09:41:09 09:41:52 10° 301° (WNW) 09:42:33 437.300
YUBILEINY 28 Jun 09:42:52 09:51:46 78° 79° (E) 10:00:34 435.215
TIGRISAT 28 Jun 09:43:36 09:47:26 26° 63° (ENE) 09:51:19 435.000
CUBEBUG 2 28 Jun 09:49:51 09:54:35 75° 286° (WNW) 09:59:11 437.445
Oscar 11 28 Jun 09:51:40 09:55:29 30° 95° (E) 09:59:15 .
ZACube-1 28 Jun 10:04:53 10:09:19 58° 100° (E) 10:13:36 437.345
PRISM 28 Jun 10:14:50 10:18:45 50° 71° (ENE) 10:22:41 437.425
UWE-3 28 Jun 10:17:04 10:21:39 65° 287° (WNW) 10:26:04 435.000/436.395/437.385
SEEDS 28 Jun 10:19:24 10:23:02 29° 293° (WNW) 10:26:39 437.485
DELFI C3 28 Jun 10:24:13 10:26:56 18° 91° (E) 10:29:38 145.870
UNISAT 6 28 Jun 10:25:42 10:30:18 65° 73° (ENE) 10:34:59 437.425
ISS 28 Jun 10:28:16 10:31:33 64° 345° (NNW) 10:34:49 437.550
HO-68 28 Jun 10:29:18 10:35:58 43° 299° (WNW) 10:42:35 435.675
EO-88 28 Jun 10:36:55 10:39:07 15° 91° (E) 10:41:18 145.990 - 145.960
CUTE 1.7 + AOD 2 28 Jun 10:44:14 10:46:15 13° 301° (WNW) 10:48:16 437.475
AIST 2D 28 Jun 10:50:05 10:51:54 14° 62° (ENE) 10:53:43 435.315
QB50P2 28 Jun 10:50:51 10:51:54 11° 56° (NE) 10:52:57 145.880/145.840
FO-29 28 Jun 10:54:01 11:00:16 65° 259° (W) 11:07:26 435.910
AAUSAT CUBESAT 2 28 Jun 11:01:08 11:04:23 23° 295° (WNW) 11:07:38 437.432
AO-73 28 Jun 11:04:16 11:08:28 41° 291° (WNW) 11:12:32 145.935
Tancredo 1 28 Jun 11:08:02 11:10:56 40° 359° (N) 11:13:51 437.200
EO-79 28 Jun 11:12:25 11:15:00 16° 60° (ENE) 11:17:37 145.935-145.965
M-CUBED/EXP-1 PRIME 28 Jun 11:15:22 11:16:39 12° 263° (W) 11:17:56 437.505
PCSat 28 Jun 11:18:25 11:21:25 15° 104° (ESE) 11:24:25 145.827
TIGRISAT 28 Jun 11:19:28 11:23:53 43° 262° (W) 11:28:24 435.000
DUCHIFAT 1 28 Jun 11:22:26 11:25:04 16° 60° (ENE) 11:27:44 145.980
Oscar 11 28 Jun 11:27:47 11:31:35 31° 293° (WNW) 11:35:22 .
CUBEBUG 2 28 Jun 11:28:39 11:30:21 12° 305° (NW) 11:32:01 437.445
NANOSAT C BR1 28 Jun 11:32:01 11:35:17 22° 63° (ENE) 11:38:33 145.865
YUBILEINY 28 Jun 11:40:44 11:47:39 27° 281° (W) 11:54:31 435.215
ZACube-1 28 Jun 11:42:05 11:45:10 19° 299° (WNW) 11:48:12 437.345
PRISM 28 Jun 11:51:40 11:54:19 17° 268° (W) 11:56:59 437.425
DELFI C3 28 Jun 11:58:10 12:01:56 44° 289° (WNW) 12:05:42 145.870
UNISAT 6 28 Jun 12:04:27 12:07:27 17° 271° (W) 12:10:29 437.425
ISS 28 Jun 12:05:09 12:08:20 44° 4° (N) 12:11:31 437.550
EO-88 28 Jun 12:09:32 12:13:03 44° 288° (WNW) 12:16:31 145.990 - 145.960
POLYITAN 1 28 Jun 12:11:42 12:15:53 56° 72° (ENE) 12:20:07 437.675
BUGSAT 1 28 Jun 12:18:59 12:21:59 19° 62° (ENE) 12:25:01 437.445
HO-68 28 Jun 12:19:45 12:21:52 11° 322° (NW) 12:23:58 435.675
AIST 2D 28 Jun 12:21:13 12:24:42 53° 260° (W) 12:28:12 435.315
LO-87 28 Jun 12:21:28 12:24:50 34° 97° (E) 12:28:11 145.935 - 145.965
QB50P2 28 Jun 12:22:40 12:26:56 78° 73° (ENE) 12:31:14 145.880/145.840
ESTCUBE 1 28 Jun 12:39:45 12:43:52 34° 97° (E) 12:47:56 437.505/2401.250
Tancredo 1 28 Jun 12:43:44 12:46:47 68° 18° (NNE) 12:49:49 437.200
FO-29 28 Jun 12:44:37 12:47:00 12° 282° (WNW) 12:49:28 435.910
EO-79 28 Jun 12:46:03 12:50:17 66° 258° (WSW) 12:54:34 145.935-145.965
DUCHIFAT 1 28 Jun 12:56:04 13:00:17 64° 258° (WSW) 13:04:32 145.980
PCSat 28 Jun 12:58:34 13:04:01 87° 121° (ESE) 13:09:29 145.827
NANOSAT C BR1 28 Jun 13:06:39 13:10:43 44° 261° (W) 13:14:50 145.865
Gurwin Techsat 1B 28 Jun 13:11:10 13:15:08 22° 58° (ENE) 13:19:06 435.225
AO-7 28 Jun 13:20:55 13:25:34 16° 36° (NE) 13:30:13 .
Oscar 19 28 Jun 13:29:43 13:34:33 42° 67° (ENE) 13:39:23 437.125/150
ISS 28 Jun 13:41:43 13:45:02 88° 200° (SSW) 13:48:20 437.550
POLYITAN 1 28 Jun 13:49:15 13:52:02 17° 270° (W) 13:54:49 437.675
BUGSAT 1 28 Jun 13:52:57 13:57:00 50° 260° (W) 14:01:08 437.445
LO-87 28 Jun 13:55:21 13:58:05 20° 295° (WNW) 14:00:49 145.935 - 145.965
SPROUT 28 Jun 13:59:01 14:03:18 61° 101° (E) 14:07:33 437.525
QB50P2 28 Jun 14:01:38 14:03:16 12° 272° (W) 14:04:56 145.880/145.840
VELOX 1 28 Jun 14:03:08 14:07:31 59° 101° (E) 14:11:55 145.980
DX 1 28 Jun 14:12:18 14:15:59 26° 95° (E) 14:19:40 434.975-435.025
ESTCUBE 1 28 Jun 14:16:43 14:20:35 29° 294° (WNW) 14:24:27 437.505/2401.250
ITAMSAT 1 28 Jun 14:17:30 14:19:51 13° 52° (NE) 14:22:14 435.822/435.867
Tancredo 1 28 Jun 14:19:33 14:22:10 26° 217° (SW) 14:24:45 437.200
UKube-1 28 Jun 14:22:41 14:26:08 23° 94° (E) 14:29:34 .
PCSat 28 Jun 14:43:46 14:48:07 24° 325° (NW) 14:52:29 145.827
50 SAT 28 Jun 14:46:51 14:50:17 87° 281° (W) 14:53:41 437.505
Gurwin Techsat 1B 28 Jun 14:49:19 14:54:36 67° 257° (WSW) 14:59:55 435.225
SO-50 28 Jun 14:56:20 15:00:51 69° 125° (SE) 15:05:22 436.795
AO-7 28 Jun 15:08:32 15:16:28 51° 60° (ENE) 15:24:28 .
Oscar 19 28 Jun 15:09:32 15:14:00 29° 265° (W) 15:18:29 437.125/150
ISS 28 Jun 15:18:45 15:21:09 19° 221° (SW) 15:23:33 437.550
ITUPSAT 1 28 Jun 15:23:56 15:25:18 11° 86° (E) 15:26:40 437.325
BEESAT 28 Jun 15:30:46 15:33:07 13° 88° (E) 15:35:28 436.000
SPROUT 28 Jun 15:35:57 15:38:47 17° 299° (WNW) 15:41:35 437.525
VELOX 1 28 Jun 15:40:30 15:43:34 19° 300° (WNW) 15:46:37 145.980
DX 1 28 Jun 15:48:14 15:52:15 37° 293° (WNW) 15:56:17 434.975-435.025
ITAMSAT 1 28 Jun 15:53:14 15:58:25 71° 72° (ENE) 16:03:39 435.822/435.867
UKube-1 28 Jun 15:58:15 16:02:19 41° 292° (WNW) 16:06:23 .
MOZHAYETS 4 28 Jun 16:07:57 16:11:23 20° 91° (E) 16:14:47
PCSat 28 Jun 16:32:13 16:33:37 11° 350° (N) 16:35:01 145.827
SO-50 28 Jun 16:38:00 16:41:44 25° 326° (NW) 16:45:29 436.795
CUBESAT XI-V 28 Jun 16:58:49 17:01:10 14° 88° (E) 17:03:31 437.345
ITUPSAT 1 28 Jun 16:59:03 17:03:53 84° 102° (ESE) 17:08:40 437.325
AO-7 28 Jun 17:01:29 17:09:21 45° 260° (W) 17:17:19 .
BEESAT 28 Jun 17:06:42 17:11:31 82° 286° (WNW) 17:16:17 436.000
KKS-1 28 Jun 17:17:33 17:19:45 13° 89° (E) 17:21:56 437.445
CUTE-I 28 Jun 17:23:36 17:26:59 17° 55° (NE) 17:30:25 437.470
DOVE 4 28 Jun 17:25:47 17:29:18 26° 64° (ENE) 17:32:58 437.250
HO-68 28 Jun 17:31:00 17:34:16 14° 41° (NE) 17:37:31 435.675
ITAMSAT 1 28 Jun 17:34:56 17:38:25 18° 270° (W) 17:41:56 435.822/435.867
XW-2F 28 Jun 17:41:33 17:43:52 16° 62° (ENE) 17:46:09 145.980 - 146.000
MOZHAYETS 4 28 Jun 17:44:22 17:48:50 50° 290° (WNW) 17:53:14
XW-2D 28 Jun 17:47:33 17:50:17 19° 64° (ENE) 17:53:01 145.860 - 145.880
XW-2B 28 Jun 17:56:19 17:59:20 22° 66° (ENE) 18:02:21 145.730 - 145.750
LilacSat-2 28 Jun 17:59:36 18:02:49 26° 67° (ENE) 18:06:02 437.200
XW-2C 28 Jun 18:11:30 18:14:55 32° 69° (ENE) 18:18:21 145.795 - 145.815
KAITUO 1B 28 Jun 18:16:59 18:20:16 28° 68° (ENE) 18:23:32 145.475/437.950
PCSat 28 Jun 18:17:16 18:19:38 13° 17° (NNE) 18:21:59 145.827
SO-50 28 Jun 18:22:39 18:23:47 11° 350° (N) 18:24:56 436.795
CUTE 1.7 + AOD 2 28 Jun 18:30:10 18:31:30 11° 57° (ENE) 18:32:51 437.475
CUBESAT XI-V 28 Jun 18:34:29 18:39:06 76° 286° (WNW) 18:43:41 437.345
ITUPSAT 1 28 Jun 18:38:17 18:41:04 16° 304° (WNW) 18:43:51 437.325
BEESAT 28 Jun 18:46:18 18:48:32 13° 305° (NW) 18:50:46 436.000
NUDT-PHONESAT 28 Jun 18:47:02 18:50:44 60° 74° (ENE) 18:54:27 437.300
KKS-1 28 Jun 18:52:20 18:56:50 76° 287° (WNW) 19:01:19 437.445
CUTE-I 28 Jun 19:01:00 19:06:21 87° 255° (WSW) 19:11:45 437.470
DOVE 4 28 Jun 19:03:01 19:06:53 35° 264° (W) 19:10:56 437.250
STARS 28 Jun 19:12:00 19:16:28 78° 105° (ESE) 19:20:54 437.465
HO-68 28 Jun 19:13:31 19:20:23 51° 64° (ENE) 19:27:18 435.675
XW-2F 28 Jun 19:13:51 19:17:36 53° 260° (W) 19:21:21 145.980 - 146.000
CUBEBUG 2 28 Jun 19:15:53 19:19:14 20° 61° (ENE) 19:22:37 437.445
XW-2D 28 Jun 19:20:34 19:24:12 41° 262° (W) 19:27:52 145.860 - 145.880
